User: anonymous   Login
Location: Greenwich
(51.4790°N, 0.0090°E)
Time: 17:41:41
(UTC+01:00)
Language:

Explorer 11/Cluster Stage 4 - Orbit

View from above orbital plane
View from above orbital plane
View from above satellite
View from above satellite

Ground track
Ground track

The orbit data is extracted from the following two-line orbital elements,

1   107U 61013A   24104.51289259  .00003692  00000-0  45756-3 0  9991
2   107  28.7892 196.1093 0522918 302.8570  52.2705 14.14901009163074
Epoch (UTC): 13 April 2024 12:18:33
Eccentricity: 0.0522918
inclination: 28.7892°
perigee height: 465 km
apogee height: 1220 km
right ascension of ascending node: 196.1093°
argument of perigee: 302.8570°
revolutions per day: 14.14901009
mean anomaly at epoch: 52.2705°
orbit number at epoch: 16307

The dashed part of the orbit path shows where the satellite is in the earth's shadow,  

DLR